[[{"header":{"parameterUnit":"m.s-1","parameterCategory":1,"la1":30.2991,"la2":30.254,"lo1":-89.0895,"lo2":-89.0444,"dy":0.0017,"dx":0.0017,"nx":28,"ny":28,"refTime":"2025-11-08T09:00:00:Z","depth":0,"parameterNumber":2,"parameterNumberName":"U-component_of_WINDS"},"data":[0,0,0,0,0,0,0,0,0,0,0,0,0,0,0,0,0,0,0,0,0,0,0,0,0,0,0,0,0,0,0,0,0,0,0,0,0,0,0,0,0,0,0,0,0,0,0,0,0,0,0,0,0,0,0,0,0,0,2.691,2.691,0,2.6919,2.692,2.692,2.6892,2.6891,2.689,2.6889,2.6898,2.6899,2.69,0,0,0,0,0,0,0,0,0,0,0,0,0,2.6869,2.687,2.691,2.691,2.691,2.6919,2.692,2.692,2.6892,2.6891,2.689,2.6889,2.6898,2.6899,2.69,0,0,0,0,0,0,0,0,0,0,0,0,0,2.6883,2.687,2.691,2.6897,2.6896,2.6919,2.692,2.692,2.6892,2.6891,2.6889,2.6888,2.6897,2.6899,2.69,2.6936,0,0,2.6905,2.6906,0,0,0,0,0,0,0,0,2.6882,2.6885,2.6899,2.6898,2.6897,2.6903,2.6908,2.6925,2.6892,2.6894,2.6889,2.6887,2.6901,2.6902,2.6906,2.6936,2.6936,2.6905,2.6906,2.6907,2.6907,0,0,0,0,0,0,0,2.6882,2.6884,2.6914,2.6899,2.6898,2.6892,2.6892,2.6911,2.6904,2.6893,2.6891,2.6893,2.69,2.6905,2.6906,2.6936,2.6905,2.6906,2.6907,2.6908,2.6997,2.6998,0,0,0,0,0,0,2.6882,2.6884,2.6913,2.6914,2.6887,2.6893,2.6894,2.6902,2.6904,2.6903,2.6894,2.6892,2.6903,2.6905,2.6907,2.6948,2.6907,2.6908,2.6909,2.6995,2.6997,2.6999,0,0,0,0,0,0,2.6881,2.6885,2.6913,2.6898,2.6901,2.6895,2.6905,2.6903,2.6908,2.6904,2.6903,2.69,2.6902,2.6904,2.6929,2.6948,2.6909,2.691,2.6994,2.6996,2.6998,2.7032,0,0,0,0,0,0,2.688,2.6885,2.6898,2.6899,2.6902,2.6935,2.6906,2.6904,2.6911,2.6908,2.691,2.6909,2.6901,2.6927,2.693,2.695,2.6911,2.6992,2.6995,2.6997,2.7029,2.7035,2.704,0,0,0,0,0,2.6879,2.6907,2.6899,2.6902,2.6918,2.6936,2.6938,2.6928,2.6913,2.6926,2.6924,2.6909,2.6946,2.6929,2.6933,2.6953,2.6991,2.6994,2.6997,2.7027,2.7034,2.704,0,0,0,0,0,0,2.6907,2.6906,2.6898,2.6926,2.6932,2.6931,2.6947,2.6936,2.6946,2.6942,2.693,2.6931,2.6958,2.6958,2.694,2.6988,2.6966,2.697,2.6987,2.6994,2.6999,2.6998,2.6913,0,0,0,0,0,2.6917,2.6932,2.693,2.6956,2.6959,2.6953,2.696,2.6953,2.6958,2.696,2.6959,2.6964,2.6977,2.6986,2.6997,2.703,2.703,2.7046,2.7051,2.7056,2.7059,2.7077,2.7084,2.7009,2.7009,2.7009,0,0,2.6937,2.6939,2.6948,2.6962,2.6965,2.698,2.6955,2.6972,2.6984,2.6962,2.6985,2.6985,2.699,2.7019,2.7032,2.7021,2.708,2.706,2.7064,2.7064,2.7081,2.7088,2.7095,2.7011,2.7011,2.7011,0,0,2.6981,2.6984,2.7006,2.701,2.7016,2.7012,2.7017,2.7019,2.7019,2.7042,2.7027,2.704,2.7063,2.7067,2.7072,2.7121,2.7108,2.7125,2.7154,2.7171,2.7177,2.7182,2.72,2.7206,2.7129,2.7129,2.7129,0,2.7005,2.7028,2.7019,2.7037,2.7044,2.7027,2.7049,2.7054,2.7062,2.7068,2.7055,2.7083,2.7086,2.7116,2.7128,2.7133,2.7139,2.7124,2.7177,2.7182,2.7187,2.7203,2.721,2.7131,2.7131,2.7131,2.713,0,2.7057,2.7073,2.7091,2.7101,2.7109,2.713,2.7124,2.7134,2.7127,2.7125,2.7149,2.7152,2.7164,2.7171,2.7163,2.7201,2.7193,2.7179,2.7156,2.7196,2.7211,2.7218,2.7134,2.7133,2.7133,2.7132,0,0,2.7117,2.7123,2.713,2.7135,2.7141,2.7153,2.7174,2.7186,2.7195,2.7203,2.722,2.724,2.7228,2.7234,2.7227,2.7243,2.7281,2.7227,2.7227,2.7236,2.7323,2.7333,2.734,2.7274,2.7275,2.7276,2.7322,0,2.716,2.7195,2.7189,2.7223,2.7238,2.7223,2.7241,2.7247,2.7246,2.7259,2.7258,2.7273,2.7256,2.7259,2.7274,2.7273,2.7298,2.727,2.7289,2.729,2.7287,2.7348,2.7358,2.7402,2.7328,2.7329,2.733,0,2.7215,2.7225,2.7261,2.7266,2.7272,2.7289,2.73,2.7313,2.732,2.7319,2.7327,2.7317,2.7338,2.7316,2.7345,2.7326,2.7334,2.7335,2.7336,2.7336,2.7311,2.7349,2.7415,2.7422,2.7339,2.7339,2.7338,0,2.7254,2.7278,2.7302,2.7307,2.7314,2.7326,2.7329,2.7335,2.7343,2.7354,2.7359,2.7372,2.7379,2.7389,2.7384,2.7369,2.7414,2.7391,2.7413,2.7414,2.7422,2.7421,2.749,2.7429,2.7429,2.7429,2.7429,0,2.7303,2.7325,2.7321,2.7336,2.7361,2.7354,2.7379,2.7381,2.7386,2.7402,2.739,2.7405,2.7398,2.7412,2.7408,2.7433,2.7436,2.7436,2.7434,2.7436,2.7436,2.744,2.7436,2.7431,2.743,2.743,2.7429,0,2.735,2.7348,2.7374,2.7379,2.7381,2.7399,2.7404,2.7418,2.7417,2.7437,2.7442,2.744,2.7457,2.7453,2.7471,2.7469,2.75,2.7495,2.7497,2.7496,2.7518,2.7516,2.759,2.7599,2.7533,2.7534,2.7535,0,2.738,2.7398,2.7405,2.7415,2.7419,2.7435,2.7444,2.7439,2.7449,2.746,2.7473,2.7489,2.7501,2.7528,2.7529,2.7543,2.7538,2.7563,2.754,2.7542,2.7538,2.7536,2.7538,2.7567,2.7568,2.7569,2.7569,0,2.7434,2.7433,2.7447,2.7461,2.7472,2.7483,2.7492,2.7501,2.7497,2.7509,2.7526,2.7536,2.7555,2.7571,2.7584,2.7588,2.7578,2.7577,2.7583,2.7584,2.7585,2.7584,2.7509,2.7575,2.7574,2.7574,2.7573,2.7573,2.7474,2.7489,2.7497,2.7513,2.752,2.753,2.7544,2.7546,2.756,2.7575,2.7572,2.7592,2.76,2.7617,2.7622,2.7638,2.7628,2.7637,2.7639,2.7641,2.7643,2.7583,2.7641,2.764,2.764,2.764,2.764,0,2.7527,2.7532,2.7547,2.7561,2.7574,2.7565,2.7576,2.7587,2.7605,2.7613,2.7626,2.7647,2.7663,2.7666,2.7681,2.7693,2.7689,2.7697,2.7696,2.7697,2.7651,2.7644,2.77,2.77,2.77,2.77,2.77,2.77,2.7556,2.7581,2.7581,2.761,2.7615,2.7634,2.7641,2.765,2.7657,2.7681,2.7694,2.7697,2.7703,2.772,2.7734,2.7735,2.774,2.775,2.7749,2.7706,2.77,2.7694,2.7688,2.7752,2.7752,2.7794,2.7794,2.7794]},{"header":{"parameterUnit":"m.s-1","parameterCategory":1,"la1":30.2991,"la2":30.254,"lo1":-89.0895,"lo2":-89.0444,"dy":0.0017,"dx":0.0017,"nx":28,"ny":28,"refTime":"2025-11-08T09:00:00:Z","depth":0,"parameterNumber":3,"parameterNumberName":"V-component_of_WINDS"},"data":[0,0,0,0,0,0,0,0,0,0,0,0,0,0,0,0,0,0,0,0,0,0,0,0,0,0,0,0,0,0,0,0,0,0,0,0,0,0,0,0,0,0,0,0,0,0,0,0,0,0,0,0,0,0,0,0,0,0,-9.7453,-9.7455,0,-9.7683,-9.7686,-9.7688,-9.759,-9.7584,-9.7579,-9.7574,-9.7801,-9.7812,-9.7823,0,0,0,0,0,0,0,0,0,0,0,0,0,-9.6922,-9.6933,-9.7453,-9.7456,-9.7459,-9.7683,-9.7686,-9.7689,-9.7591,-9.7584,-9.7577,-9.7571,-9.7798,-9.7811,-9.7824,0,0,0,0,0,0,0,0,0,0,0,0,0,-9.7153,-9.6936,-9.7452,-9.7437,-9.7438,-9.7682,-9.7686,-9.769,-9.7592,-9.7584,-9.7576,-9.7568,-9.7793,-9.781,-9.7826,-9.8097,0,0,-9.7878,-9.7885,0,0,0,0,0,0,0,0,-9.714,-9.7172,-9.7436,-9.7438,-9.744,-9.7599,-9.7582,-9.7826,-9.7594,-9.7533,-9.7573,-9.7564,-9.774,-9.7761,-9.7822,-9.8107,-9.8117,-9.7879,-9.7889,-9.7897,-9.7901,0,0,0,0,0,0,0,-9.7124,-9.7162,-9.7543,-9.744,-9.7442,-9.7416,-9.744,-9.7628,-9.768,-9.7538,-9.7532,-9.7561,-9.774,-9.7806,-9.7827,-9.812,-9.7879,-9.7894,-9.7904,-9.7911,-9.8641,-9.865,0,0,0,0,0,0,-9.7109,-9.7149,-9.7536,-9.755,-9.7266,-9.7433,-9.7459,-9.7556,-9.7678,-9.7689,-9.7567,-9.7555,-9.7782,-9.7807,-9.7834,-9.8161,-9.7897,-9.7912,-9.7922,-9.8632,-9.8643,-9.8653,0,0,0,0,0,0,-9.7098,-9.7144,-9.7527,-9.7348,-9.7395,-9.7451,-9.7561,-9.7565,-9.7632,-9.7701,-9.7709,-9.7626,-9.7776,-9.7811,-9.8033,-9.8167,-9.792,-9.7935,-9.8621,-9.8635,-9.8648,-9.8815,0,0,0,0,0,0,-9.7083,-9.7141,-9.7246,-9.7351,-9.7405,-9.7725,-9.7569,-9.7576,-9.7662,-9.7648,-9.7758,-9.7768,-9.7772,-9.8009,-9.805,-9.8186,-9.7948,-9.8609,-9.8627,-9.8644,-9.8798,-9.8833,-9.8863,0,0,0,0,0,-9.7064,-9.7281,-9.7251,-9.7299,-9.7537,-9.7732,-9.7763,-9.7766,-9.7673,-9.7779,-9.7823,-9.7764,-9.8146,-9.8032,-9.8078,-9.8221,-9.8601,-9.8622,-9.8642,-9.8783,-9.8826,-9.8863,0,0,0,0,0,0,-9.7186,-9.7295,-9.7263,-9.7521,-9.7619,-9.7715,-9.7848,-9.781,-9.7934,-9.7916,-9.7911,-9.7937,-9.8168,-9.8216,-9.8088,-9.849,-9.8359,-9.839,-9.8451,-9.8492,-9.8524,-9.8508,-9.7962,0,0,0,0,0,-9.7244,-9.7396,-9.7481,-9.77,-9.7751,-9.7792,-9.7876,-9.7871,-9.7971,-9.8011,-9.8071,-9.8168,-9.831,-9.8403,-9.8537,-9.8804,-9.8827,-9.8925,-9.8958,-9.8984,-9.9011,-9.9158,-9.9203,-9.8722,-9.8722,-9.8721,0,0,-9.7363,-9.7441,-9.7536,-9.7727,-9.7802,-9.7958,-9.7827,-9.7996,-9.8112,-9.8035,-9.8251,-9.8299,-9.8406,-9.8653,-9.8765,-9.8701,-9.915,-9.9011,-9.9032,-9.9045,-9.9184,-9.923,-9.927,-9.8736,-9.8733,-9.8731,0,0,-9.766,-9.7735,-9.7927,-9.8006,-9.8122,-9.8148,-9.8194,-9.8298,-9.8328,-9.8545,-9.8492,-9.8627,-9.8871,-9.8951,-9.9024,-9.9355,-9.9306,-9.9398,-9.9569,-9.9712,-9.975,-9.9783,-9.9903,-9.9945,-9.9424,-9.9425,-9.9425,0,-9.7793,-9.8028,-9.8029,-9.8206,-9.8291,-9.8232,-9.8427,-9.8502,-9.8655,-9.8715,-9.8641,-9.8949,-9.9017,-9.9283,-9.9364,-9.9424,-9.9476,-9.9386,-9.9744,-9.9778,-9.9809,-9.9923,-9.9968,-9.9435,-9.9434,-9.9433,-9.9432,0,-9.8187,-9.8351,-9.8491,-9.8646,-9.8746,-9.893,-9.8958,-9.906,-9.9045,-9.9079,-9.93,-9.9381,-9.9531,-9.9593,-9.9579,-9.9858,-9.9815,-9.9744,-9.9612,-9.9866,-9.9973,-10.0017,-9.9451,-9.9447,-9.9444,-9.9441,0,0,-9.8567,-9.8722,-9.8773,-9.8844,-9.8969,-9.9094,-9.9275,-9.9426,-9.9514,-9.9621,-9.9773,-9.9982,-9.9918,-10.0001,-9.9995,-10.012,-10.038,-10.0033,-10.0036,-10.0096,-10.0693,-10.0748,-10.0798,-10.0348,-10.0356,-10.0363,-10.0685,0,-9.8875,-9.9196,-9.9204,-9.9497,-9.9649,-9.9596,-9.9754,-9.9847,-9.9883,-10.0015,-10.0053,-10.0203,-10.0106,-10.0156,-10.0277,-10.0322,-10.0499,-10.0299,-10.0488,-10.0495,-10.0465,-10.0854,-10.0912,-10.1212,-10.0726,-10.0733,-10.0739,0,-9.9278,-9.9403,-9.9713,-9.9819,-9.9883,-10.0025,-10.0165,-10.0292,-10.0396,-10.0414,-10.0508,-10.0484,-10.0668,-10.053,-10.0782,-10.0646,-10.0724,-10.0757,-10.0769,-10.0788,-10.0633,-10.0884,-10.1307,-10.1353,-10.0804,-10.0799,-10.0794,0,-9.9527,-9.9772,-9.999,-10.0051,-10.0179,-10.0281,-10.0339,-10.0435,-10.0526,-10.0647,-10.0706,-10.0845,-10.0922,-10.103,-10.1044,-10.0942,-10.1299,-10.1161,-10.1318,-10.1318,-10.1396,-10.1391,-10.1839,-10.1444,-10.1443,-10.1442,-10.1441,0,-9.9871,-10.0063,-10.0104,-10.0238,-10.0452,-10.0457,-10.0668,-10.0717,-10.0804,-10.0945,-10.0906,-10.1039,-10.105,-10.1186,-10.1198,-10.1406,-10.144,-10.1459,-10.146,-10.1464,-10.1462,-10.1515,-10.1495,-10.1454,-10.1452,-10.1449,-10.1447,0,-10.0186,-10.022,-10.0455,-10.0559,-10.0589,-10.0742,-10.083,-10.0957,-10.099,-10.117,-10.1212,-10.1263,-10.1422,-10.1447,-10.1632,-10.164,-10.1891,-10.1869,-10.1857,-10.1855,-10.2011,-10.1996,-10.251,-10.2578,-10.2137,-10.2141,-10.2145,0,-10.0404,-10.0551,-10.0672,-10.0766,-10.083,-10.0981,-10.1074,-10.1085,-10.1184,-10.1316,-10.1427,-10.1583,-10.1709,-10.1965,-10.2017,-10.2159,-10.2141,-10.2312,-10.2162,-10.2162,-10.2146,-10.2138,-10.2153,-10.234,-10.2345,-10.2349,-10.2352,0,-10.0789,-10.0799,-10.0937,-10.1083,-10.1197,-10.1311,-10.1418,-10.1496,-10.1521,-10.1634,-10.1798,-10.1896,-10.2087,-10.2242,-10.2384,-10.244,-10.2402,-10.2399,-10.2443,-10.2449,-10.2437,-10.2447,-10.1937,-10.2387,-10.2384,-10.2381,-10.2379,-10.2378,-10.1063,-10.1192,-10.1299,-10.1454,-10.1537,-10.1639,-10.1765,-10.1815,-10.1953,-10.2113,-10.211,-10.229,-10.2391,-10.2578,-10.2645,-10.2785,-10.2729,-10.2792,-10.2809,-10.2825,-10.2841,-10.2414,-10.281,-10.2809,-10.2808,-10.2807,-10.2807,0,-10.1447,-10.1513,-10.1657,-10.1811,-10.1933,-10.1888,-10.2005,-10.211,-10.2271,-10.237,-10.2495,-10.2685,-10.2835,-10.2901,-10.3049,-10.3148,-10.3134,-10.3187,-10.318,-10.3194,-10.2881,-10.2829,-10.3196,-10.3196,-10.3196,-10.3196,-10.3196,-10.3196,-10.1661,-10.1879,-10.1903,-10.2161,-10.2224,-10.2404,-10.2475,-10.2569,-10.2649,-10.2863,-10.299,-10.3032,-10.3118,-10.3272,-10.3408,-10.3423,-10.348,-10.3542,-10.3549,-10.3255,-10.3216,-10.3178,-10.313,-10.3553,-10.3554,-10.385,-10.3853,-10.3855]}]]